| time (UTC) | temp F | wind direction | speed MPH | gust MPH | rain 1hr in | rain 24hr in | rain mn in | humidity % | barometer mb |
| 20260503004534 | 63 | 252 | 0.0 | 2.0 | 0.00 | 0.00 | 0.00 | 80 | 1017.2 |
| 20260503003010 | 63 | 226 | 0.0 | 2.0 | 0.00 | 0.00 | 0.00 | 79 | 1017.2 |
| 20260503001536 | 63 | 235 | 0.0 | 3.0 | 0.00 | 0.00 | 0.00 | 79 | 1017.3 |
| 20260503000036 | 63 | 246 | 0.0 | 3.0 | 0.00 | 0.00 | 0.00 | 79 | 1017.4 |
| 20260502234546 | 63 | 255 | 0.0 | 3.0 | 0.00 | 0.00 | 0.00 | 78 | 1017.4 |
| 20260502233009 | 63 | 270 | 0.0 | 6.0 | 0.00 | 0.00 | 0.00 | 79 | 1017.4 |
| 20260502231509 | 63 | 250 | 0.0 | 3.0 | 0.00 | 0.00 | 0.00 | 79 | 1017.5 |
| 20260502230122 | 63 | 246 | 0.0 | 4.0 | 0.00 | 0.00 | 0.00 | 80 | 1017.5 |
| 20260502224506 | 64 | 248 | 0.0 | 4.0 | 0.00 | 0.00 | 0.00 | 80 | 1017.4 |
| 20260502223118 | 64 | 255 | 0.0 | 3.0 | 0.00 | 0.00 | 0.00 | 80 | 1017.3 |
| 20260502221615 | 64 | 239 | 0.0 | 3.0 | 0.00 | 0.00 | 0.00 | 79 | 1017.3 |
| 20260502220150 | 64 | 232 | 0.0 | 2.0 | 0.00 | 0.00 | 0.00 | 80 | 1017.5 |
| 20260502214552 | 65 | 243 | 0.0 | 2.0 | 0.00 | 0.00 | 0.00 | 79 | 1017.5 |
| 20260502213056 | 65 | 252 | 0.0 | 2.0 | 0.00 | 0.00 | 0.00 | 79 | 1017.4 |
| 20260502211553 | 65 | 248 | 0.0 | 3.0 | 0.00 | 0.00 | 0.00 | 79 | 1017.2 |
| 20260502210057 | 66 | 246 | 0.0 | 4.0 | 0.00 | 0.00 | 0.00 | 78 | 1017.1 |
| 20260502204604 | 66 | 243 | 0.0 | 6.0 | 0.00 | 0.00 | 0.00 | 78 | 1017.1 |
| 20260502203101 | 67 | 212 | 0.0 | 4.0 | 0.00 | 0.00 | 0.00 | 78 | 1016.9 |
| 20260502201546 | 67 | 252 | 0.0 | 5.0 | 0.00 | 0.00 | 0.00 | 77 | 1016.8 |
| 20260502200041 | 68 | 250 | 0.0 | 4.0 | 0.00 | 0.00 | 0.00 | 76 | 1016.6 |
| 20260502194552 | 68 | 257 | 0.0 | 3.0 | 0.00 | 0.00 | 0.00 | 76 | 1016.5 |
| 20260502193017 | 68 | 240 | 0.0 | 5.0 | 0.00 | 0.00 | 0.00 | 75 | 1016.5 |
| 20260502191543 | 69 | 248 | 0.0 | 3.0 | 0.00 | 0.00 | 0.00 | 74 | 1016.3 |
| 20260502190038 | 69 | 236 | 0.0 | 5.0 | 0.00 | 0.00 | 0.00 | 73 | 1016.3 |
| 20260502184541 | 69 | 294 | 0.0 | 3.0 | 0.00 | 0.00 | 0.00 | 73 | 1016.3 |
| 20260502183035 | 69 | 255 | 0.0 | 5.0 | 0.00 | 0.00 | 0.00 | 73 | 1016.3 |
| 20260502181538 | 70 | 284 | 1.0 | 6.0 | 0.00 | 0.00 | 0.00 | 72 | 1016.3 |
| 20260502163111 | 73 | 314 | 0.0 | 11.0 | 0.00 | 0.00 | 0.00 | 63 | 1016.4 |
| 20260502161603 | 73 | 314 | 3.0 | 9.0 | 0.00 | 0.00 | 0.00 | 62 | 1016.2 |
| 20260502151550 | 78 | 25 | 1.0 | 6.0 | 0.00 | 0.00 | 0.00 | 56 | 1016.2 |
| 20260502140116 | 77 | 210 | 0.0 | 7.0 | 0.00 | 0.00 | 0.00 | 54 | 1017.1 |
| 20260502130111 | 77 | 228 | 0.0 | 4.0 | 0.00 | 0.00 | 0.00 | 53 | 1017.6 |
| 20260502123106 | 76 | 235 | 0.0 | 2.0 | 0.00 | 0.00 | 0.00 | 54 | 1017.8 |
| 20260502121601 | 76 | 255 | 0.0 | 4.0 | 0.00 | 0.00 | 0.00 | 54 | 1017.8 |
| 20260502114552 | 76 | 239 | 0.0 | 3.0 | 0.00 | 0.00 | 0.00 | 54 | 1018.3 |
| 20260502113051 | 75 | 195 | 0.0 | 3.0 | 0.00 | 0.00 | 0.00 | 55 | 1018.4 |
| 20260502111551 | 75 | 158 | 0.0 | 4.0 | 0.00 | 0.00 | 0.00 | 54 | 1018.6 |
| 20260502110045 | 75 | 248 | 0.0 | 1.0 | 0.00 | 0.00 | 0.00 | 56 | 1018.9 |
| 20260502104543 | 74 | 35 | 0.0 | 2.0 | 0.00 | 0.00 | 0.00 | 56 | 1019.1 |
| 20260502103038 | 73 | 233 | 0.0 | 1.0 | 0.00 | 0.00 | 0.00 | 57 | 1019.3 |
| 20260502101537 | 72 | 86 | 0.0 | 1.0 | 0.00 | 0.00 | 0.00 | 58 | 1019.2 |
| 20260502090106 | 67 | 338 | 0.0 | 2.0 | 0.00 | 0.00 | 0.00 | 66 | 1019.4 |
| 20260502070053 | 62 | 231 | 0.0 | 1.0 | 0.00 | 0.00 | 0.00 | 80 | 1018.9 |
| 20260502064549 | 61 | 211 | 0.0 | 1.0 | 0.00 | 0.00 | 0.00 | 82 | 1018.8 |
| 20260502063048 | 61 | 236 | 0.0 | 1.0 | 0.00 | 0.00 | 0.00 | 83 | 1018.9 |
| 20260502061547 | 60 | 197 | 0.0 | 2.0 | 0.00 | 0.00 | 0.00 | 84 | 1018.7 |
| 20260502060017 | 60 | 181 | 0.0 | 1.0 | 0.00 | 0.00 | 0.00 | 84 | 1018.6 |
| 20260502054508 | 60 | 269 | 0.0 | 0.0 | 0.00 | 0.00 | 0.00 | 84 | 1018.6 |
| 20260502053003 | 60 | 270 | 0.0 | 0.0 | 0.00 | 0.00 | 0.00 | 84 | 1018.7 |
| 20260502051502 | 60 | 270 | 0.0 | 0.0 | 0.00 | 0.00 | 0.00 | 84 | 1018.6 |
| 20260502050001 | 60 | 270 | 0.0 | 0.0 | 0.00 | 0.00 | 0.00 | 85 | 1018.5 |
| 20260502044501 | 60 | 270 | 0.0 | 0.0 | 0.00 | 0.00 | 0.00 | 84 | 1018.6 |
| 20260502043113 | 60 | 145 | 0.0 | 0.0 | 0.00 | 0.00 | 0.00 | 84 | 1018.5 |
| 20260502041607 | 60 | 145 | 0.0 | 0.0 | 0.00 | 0.00 | 0.00 | 84 | 1018.5 |
| 20260502040058 | 60 | 145 | 0.0 | 0.0 | 0.00 | 0.00 | 0.00 | 83 | 1018.6 |
| 20260502034557 | 61 | 145 | 0.0 | 0.0 | 0.00 | 0.00 | 0.00 | 83 | 1018.6 |
| 20260502033055 | 61 | 146 | 0.0 | 0.0 | 0.00 | 0.00 | 0.00 | 82 | 1018.6 |
| 20260502031551 | 61 | 145 | 0.0 | 0.0 | 0.00 | 0.00 | 0.00 | 82 | 1018.7 |
| 20260502030018 | 61 | 145 | 0.0 | 1.0 | 0.00 | 0.00 | 0.00 | 82 | 1018.6 |
| 20260502024542 | 61 | 145 | 0.0 | 1.0 | 0.00 | 0.00 | 0.00 | 82 | 1018.8 |
| 20260502023005 | 61 | 142 | 0.0 | 1.0 | 0.00 | 0.00 | 0.00 | 81 | 1018.8 |
| 20260502021501 | 62 | 132 | 0.0 | 1.0 | 0.00 | 0.00 | 0.00 | 80 | 1018.9 |
| 20260502020111 | 62 | 138 | 0.0 | 1.0 | 0.00 | 0.00 | 0.00 | 80 | 1019.2 |
| 20260502014605 | 63 | 137 | 0.0 | 0.0 | 0.00 | 0.00 | 0.00 | 78 | 1019.3 |
| 20260502013108 | 63 | 245 | 0.0 | 1.0 | 0.00 | 0.00 | 0.00 | 77 | 1019.5 |
| 20260502011557 | 63 | 245 | 0.0 | 0.0 | 0.00 | 0.00 | 0.00 | 77 | 1019.7 |
| 20260502010059 | 63 | 245 | 0.0 | 1.0 | 0.00 | 0.00 | 0.00 | 76 | 1020.0 |